Location: Lombard
(41.8800°N, 88.0080°W)
Time: 06:41:02
(UTC-05:00)

A-11 Canister half - Pass Details

Date: 01 May 2025
Orbit: 1514 x 1685 km, 47.2° (Epoch: 13 May)

Event Time Altitude Azimuth Distance (km) Brightness Sun altitude
Exits shadow 04:05:40 15° 195° (SSW) 3,317 10.3 -17.2°
Maximum altitude 04:12:39 39° 135° (SE) 2,139 9.8 -16.2°
Drops below altitude 10° 04:20:56 10° 71° (ENE) 3,684 12.2 -14.9°
Sets 04:24:14 0° 64° (ENE) 4,679 13.3 -14.4°
